This is the latest recevied weather packets stored in our database for station/object WW4HG. If no packets are shown the sender has not sent any weather packets the latest 10 day(s).
| Time | Temp. | Humidity | Pressure | Rain* | Wind** | Luminosity | Snow |
|---|---|---|---|---|---|---|---|
| 1778168146 | 20.56° C | 61% | 1012.3 hPa | 0 mm | - | 80 W/m² | - |
| 1778167842 | 20.56° C | 61% | 1012.6 hPa | 0 mm | - | 91 W/m² | - |
| 1778167538 | 20.56° C | 60% | 1012.3 hPa | 1.78 mm | - | 106 W/m² | - |
| 1778167235 | 20.56° C | 58% | 1012.3 hPa | 1.78 mm | - | 87 W/m² | - |
| 1778166931 | 21.11° C | 57% | 1012.3 hPa | 0 mm | - | 81 W/m² | - |
| 1778166628 | 21.11° C | 57% | 1012.3 hPa | 0 mm | - | 67 W/m² | - |
| 1778166325 | 21.11° C | 56% | 1012.3 hPa | 0 mm | - | 44 W/m² | - |
| 1778166022 | 21.11° C | 56% | 1012.6 hPa | 0 mm | - | 44 W/m² | - |
| 1778165716 | 21.11° C | 56% | 1012.3 hPa | 0 mm | - | 85 W/m² | - |
| 1778165415 | 20.56° C | 57% | 1012.3 hPa | 0 mm | - | 89 W/m² | - |
| 1778165111 | 20.56° C | 59% | 1011.9 hPa | 0 mm | - | 100 W/m² | - |
| 1778164809 | 20.56° C | 60% | 1012.3 hPa | 0 mm | - | 115 W/m² | - |
| 1778164506 | 20.56° C | 62% | 1012.6 hPa | 0 mm | - | 98 W/m² | - |
| 1778164203 | 20.56° C | 62% | 1012.9 hPa | 0 mm | - | 111 W/m² | - |
| 1778163898 | 20.56° C | 63% | 1012.9 hPa | 0 mm | - | 126 W/m² | - |
| 1778163595 | 20.56° C | 63% | 1012.3 hPa | 0 mm | - | 82 W/m² | - |
| 1778163291 | 20.56° C | 63% | 1013.3 hPa | 0 mm | - | 55 W/m² | - |
| 1778162988 | 20.56° C | 63% | 1013.3 hPa | 0 mm | - | 62 W/m² | - |
| 1778162684 | 20.56° C | 63% | 1013.3 hPa | 0 mm | - | 63 W/m² | - |
| 1778162382 | 20.56° C | 63% | 1012.9 hPa | 0 mm | - | 62 W/m² | - |
| 1778162079 | 20.56° C | 63% | 1012.6 hPa | 0 mm | - | 58 W/m² | - |
| 1778161776 | 20.56° C | 63% | 1012.3 hPa | 0 mm | - | 63 W/m² | - |
| 1778161473 | 20.56° C | 63% | 1012.3 hPa | 0 mm | - | 63 W/m² | - |
| 1778161169 | 20.56° C | 63% | 1011.9 hPa | 0 mm | - | 67 W/m² | - |
| 1778160864 | 20° C | 64% | 1012.3 hPa | 0 mm | - | 66 W/m² | - |
* Rain latest hour (hover to see other rain measurements)
** Current wind speed in m/s (hover to see current wind gust speed)